{"data":{"norad_id":66103,"epoch":"2026-05-25T04:13:30.586080Z","epoch_age_seconds":55862,"freshness":"FRESH","line1":"1 66103U 25236T   26145.17604845  .00014830  00000+0  51177-3 0  9996","line2":"2 66103  53.1576 108.6944 0001085  86.6682 273.4443 15.30204011 34659","mean_motion":15.30204011,"eccentricity":0.0001085,"inclination_deg":53.1576,"raan_deg":108.6944,"arg_perigee_deg":86.6682,"mean_anomaly_deg":273.4443,"bstar":0.00051177,"rev_number":3465,"period_min":94.105099035713,"perigee_km":474.45950592235,"apogee_km":475.9466807226,"semimajor_km":6853.3400933225,"source":"CELESTRAK","updated_at":"2026-05-25T13:38:21.030428Z"}}